FW9077 Weather Reports


Display with metric or nautical units.
time (UTC)temp
F
wind
direction
speed
MPH
gust
MPH
rain 1hr
in
rain 24hr
in
rain mn
in
humidity
%
barometer
mb
20260505013925 61 176 1.0 2.0 0.00 0.00 0.00 52 1008.9
20260505013422 61 154 0.0 1.0 0.00 0.00 0.00 52 1008.8
20260505012920 62 226 5.0 7.0 0.00 0.00 0.00 51 1008.6
20260505012418 62 165 6.0 9.0 0.00 0.00 0.00 50 1008.4
20260505011914 62 149 1.0 1.0 0.00 0.00 0.00 51 1008.3
20260505011410 62 224 3.0 6.0 0.00 0.00 0.00 50 1008.2
20260505010907 62 125 2.0 3.0 0.00 0.00 0.00 49 1008.2
20260505010403 63 130 1.0 1.0 0.00 0.00 0.00 50 1008.1
20260505005859 63 128 2.0 3.0 0.00 0.00 0.00 50 1008.0
20260505005355 63 150 3.0 3.0 0.00 0.00 0.00 48 1007.9
20260505004853 63 177 1.0 1.0 0.00 0.00 0.00 48 1007.7
20260505004349 64 168 3.0 3.0 0.00 0.00 0.00 46 1007.7
20260505003847 64 169 3.0 3.0 0.00 0.00 0.00 45 1007.3
20260505003344 64 197 3.0 3.0 0.00 0.00 0.00 44 1007.3
20260505002840 65 203 3.0 3.0 0.00 0.00 0.00 42 1007.0
20260505002337 65 147 1.0 1.0 0.00 0.00 0.00 42 1006.8
20260505001835 66 147 1.0 1.0 0.00 0.00 0.00 41 1006.8
20260505001332 66 127 1.0 2.0 0.00 0.00 0.00 40 1006.8
20260505000829 66 162 1.0 1.0 0.00 0.00 0.00 40 1006.7
20260505000327 66 226 4.0 5.0 0.00 0.00 0.00 39 1006.5
20260504235823 66 158 1.0 2.0 0.00 0.00 0.00 40 1006.6
20260504235320 66 169 2.0 2.0 0.00 0.00 0.00 39 1006.4
20260504234817 66 130 2.0 2.0 0.00 0.00 0.00 39 1006.3
20260504234315 67 118 0.0 1.0 0.00 0.00 0.00 39 1006.3
20260504233811 67 156 1.0 2.0 0.00 0.00 0.00 38 1006.2
20260504233307 68 130 1.0 1.0 0.00 0.00 0.00 38 1006.0
20260504232804 68 128 1.0 1.0 0.00 0.00 0.00 38 1006.1
20260504232301 68 139 1.0 1.0 0.00 0.00 0.00 38 1006.2
20260504231758 68 194 2.0 2.0 0.00 0.00 0.00 38 1005.9
20260504231254 68 179 3.0 3.0 0.00 0.00 0.00 37 1005.8
20260504230750 68 144 2.0 3.0 0.00 0.00 0.00 37 1005.8
20260504230248 69 171 2.0 2.0 0.00 0.00 0.00 36 1005.6
20260504225747 69 217 6.0 7.0 0.00 0.00 0.00 36 1005.8
20260504225243 69 92 2.0 3.0 0.00 0.00 0.00 36 1005.7
20260504224740 69 135 3.0 3.0 0.00 0.00 0.00 36 1005.7
20260504224237 69 120 3.0 3.0 0.00 0.00 0.00 35 1005.5
20260504223733 69 110 3.0 3.0 0.00 0.00 0.00 35 1005.4
20260504223229 69 207 3.0 3.0 0.00 0.00 0.00 36 1005.5
20260504222727 70 111 2.0 2.0 0.00 0.00 0.00 34 1005.5
20260504222223 69 127 3.0 5.0 0.00 0.00 0.00 35 1005.5
20260504221721 69 203 4.0 6.0 0.00 0.00 0.00 35 1005.3
20260504221218 69 86 3.0 3.0 0.00 0.00 0.00 36 1005.5
20260504220714 69 187 3.0 5.0 0.00 0.00 0.00 35 1005.4
20260504220212 69 70 4.0 5.0 0.00 0.00 0.00 35 1005.4
20260504215708 69 119 3.0 5.0 0.00 0.00 0.00 35 1005.5
20260504215206 69 210 3.0 5.0 0.00 0.00 0.00 35 1005.6
20260504214701 70 249 3.0 5.0 0.00 0.00 0.00 34 1005.6
20260504214158 69 279 3.0 3.0 0.00 0.00 0.00 34 1005.1
20260504213654 70 102 6.0 7.0 0.00 0.00 0.00 33 1005.4
20260504213151 70 152 1.0 1.0 0.00 0.00 0.00 34 1005.6
20260504212647 71 97 2.0 2.0 0.00 0.00 0.00 33 1005.5
20260504212144 71 266 7.0 11.0 0.00 0.00 0.00 32 1005.7
20260504211642 71 174 4.0 5.0 0.00 0.00 0.00 33 1005.6
20260504211138 71 281 4.0 6.0 0.00 0.00 0.00 33 1005.5
20260504210636 71 280 2.0 2.0 0.00 0.00 0.00 33 1005.5
20260504210132 71 83 4.0 5.0 0.00 0.00 0.00 34 1005.5
20260504205630 71 123 2.0 2.0 0.00 0.00 0.00 33 1005.5
20260504205127 71 108 2.0 2.0 0.00 0.00 0.00 33 1005.5
20260504204625 72 220 3.0 6.0 0.00 0.00 0.00 32 1005.4
20260504204124 71 280 4.0 5.0 0.00 0.00 0.00 32 1005.4
20260504203622 71 212 4.0 5.0 0.00 0.00 0.00 32 1005.4
20260504203119 71 91 4.0 5.0 0.00 0.00 0.00 32 1005.3
20260504202614 71 163 4.0 5.0 0.00 0.00 0.00 32 1005.4
20260504202111 71 113 2.0 2.0 0.00 0.00 0.00 33 1005.4
20260504201608 71 275 4.0 6.0 0.00 0.00 0.00 32 1005.4
20260504201106 71 277 5.0 7.0 0.00 0.00 0.00 31 1005.3
20260504200603 70 41 3.0 3.0 0.00 0.00 0.00 32 1005.2
20260504200059 71 277 9.0 11.0 0.00 0.00 0.00 32 1005.4
20260504195555 72 189 6.0 9.0 0.00 0.00 0.00 31 1005.4
20260504195052 71 230 2.0 5.0 0.00 0.00 0.00 32 1005.4
20260504194548 71 101 5.0 7.0 0.00 0.00 0.00 32 1005.4
20260504194044 69 226 5.0 6.0 0.00 0.00 0.00 32 1005.2
20260504193541 68 249 3.0 3.0 0.00 0.00 0.00 33 1005.6
20260504193039 68 182 5.0 6.0 0.00 0.00 0.00 33 1005.6
20260504192537 69 124 1.0 1.0 0.00 0.00 0.00 34 1005.6
20260504192035 68 163 0.0 1.0 0.00 0.00 0.00 34 1005.7
20260504191533 68 59 3.0 3.0 0.00 0.00 0.00 33 1005.8
20260504191029 70 114 2.0 3.0 0.00 0.00 0.00 32 1005.7
20260504190525 69 292 5.0 6.0 0.00 0.00 0.00 33 1005.7
20260504190021 68 219 1.0 2.0 0.00 0.00 0.00 34 1005.8
20260504185518 68 257 3.0 5.0 0.00 0.00 0.00 34 1005.9
20260504185015 67 95 2.0 5.0 0.00 0.00 0.00 33 1005.6
20260504184510 68 288 3.0 5.0 0.00 0.00 0.00 34 1005.9
20260504184006 69 310 4.0 6.0 0.00 0.00 0.00 32 1005.9
20260504183503 72 248 6.0 7.0 0.00 0.00 0.00 30 1006.0
20260504183002 71 243 4.0 6.0 0.00 0.00 0.00 30 1005.9
20260504182458 70 113 2.0 2.0 0.00 0.00 0.00 33 1005.9
20260504181955 70 259 5.0 7.0 0.00 0.00 0.00 31 1006.0
20260504181452 69 335 5.0 6.0 0.00 0.00 0.00 31 1006.0
20260504180950 70 178 5.0 7.0 0.00 0.00 0.00 32 1005.9
20260504180449 70 256 5.0 8.0 0.00 0.00 0.00 32 1005.9
20260504175947 69 151 2.0 3.0 0.00 0.00 0.00 32 1006.2
20260504175444 69 180 7.0 9.0 0.00 0.00 0.00 33 1006.1
20260504174941 68 194 5.0 8.0 0.00 0.00 0.00 33 1006.3
20260504174439 68 147 7.0 10.0 0.00 0.00 0.00 33 1005.9
20260504173936 68 268 4.0 5.0 0.00 0.00 0.00 34 1006.1
20260504173432 69 237 3.0 5.0 0.00 0.00 0.00 33 1006.2
20260504172930 69 211 1.0 2.0 0.00 0.00 0.00 35 1006.3
20260504172426 68 209 5.0 8.0 0.00 0.00 0.00 33 1006.4
20260504171922 68 277 9.0 13.0 0.00 0.00 0.00 32 1006.4
20260504171420 68 164 5.0 8.0 0.00 0.00 0.00 34 1006.4
20260504170917 68 274 5.0 8.0 0.00 0.00 0.00 34 1006.5
20260504170413 68 202 5.0 7.0 0.00 0.00 0.00 33 1006.6
20260504160332 66 200 2.0 2.0 0.00 0.00 0.00 36 1006.9
20260504150756 65 266 3.0 6.0 0.00 0.00 0.00 39 1007.2
20260504150253 65 242 3.0 5.0 0.00 0.00 0.00 39 1007.3
20260504141223 61 181 5.0 7.0 0.00 0.00 0.00 44 1008.1
20260504140720 61 259 3.0 3.0 0.00 0.00 0.00 45 1008.1
20260504140215 61 166 1.0 2.0 0.00 0.00 0.00 45 1008.2
20260504130643 57 112 2.0 2.0 0.00 0.00 0.00 50 1009.0
20260504130140 57 176 3.0 5.0 0.00 0.00 0.00 48 1009.0
20260504120104 52 108 1.0 2.0 0.00 0.00 0.00 54 1009.3
20260504110531 47 144 1.0 1.0 0.00 0.00 0.00 61 1009.4
20260504100448 45 138 1.0 1.0 0.00 0.00 0.00 63 1009.3
20260504081841 44 130 0.0 0.0 0.00 0.00 0.00 62 1009.2
20260504081337 44 200 3.0 3.0 0.00 0.00 0.00 61 1009.4
20260504080833 44 143 1.0 1.0 0.00 0.00 0.00 60 1009.2
20260504080331 44 127 1.0 1.0 0.00 0.00 0.00 61 1009.5
20260504070258 42 117 0.0 0.0 0.00 0.00 0.00 61 1009.2
20260504060218 42 117 0.0 0.0 0.00 0.00 0.00 61 1009.3
20260504050646 41 118 1.0 2.0 0.00 0.00 0.00 64 1009.2
20260504050143 41 113 1.0 2.0 0.00 0.00 0.00 64 1009.3
20260504045640 41 133 1.0 1.0 0.00 0.00 0.00 64 1009.4
20260504045135 41 129 0.0 1.0 0.00 0.00 0.00 65 1009.3
20260504044633 41 139 0.0 1.0 0.00 0.00 0.00 63 1009.5
20260504044129 41 107 0.0 1.0 0.00 0.00 0.00 64 1009.4
20260504043626 40 122 0.0 1.0 0.00 0.00 0.00 64 1009.4
20260504043124 40 121 0.0 0.0 0.00 0.00 0.00 64 1009.3
20260504042621 41 123 0.0 0.0 0.00 0.00 0.00 64 1009.1
20260504042117 40 110 1.0 1.0 0.00 0.00 0.00 64 1009.3
20260504041613 40 113 0.0 0.0 0.00 0.00 0.00 65 1009.2
20260504041110 40 117 0.0 0.0 0.00 0.00 0.00 66 1009.2
20260504040607 40 118 1.0 1.0 0.00 0.00 0.00 66 1008.9
20260504040103 40 126 0.0 1.0 0.00 0.00 0.00 65 1009.1
20260504035600 40 114 0.0 0.0 0.00 0.01 0.01 65 1009.2
20260504035056 40 112 0.0 1.0 0.00 0.01 0.01 65 1009.1
20260504034555 41 128 1.0 1.0 0.00 0.01 0.01 64 1008.9
20260504034051 41 124 0.0 1.0 0.00 0.01 0.01 64 1009.2
20260504033549 41 113 0.0 0.0 0.00 0.01 0.01 63 1009.0
20260504033046 41 128 0.0 0.0 0.00 0.01 0.01 63 1009.0
20260504032543 41 116 0.0 0.0 0.00 0.01 0.01 63 1009.0
20260504032040 41 118 0.0 0.0 0.00 0.01 0.01 62 1009.1
20260504031537 41 112 0.0 0.0 0.00 0.01 0.01 62 1008.9
20260504031033 41 117 0.0 0.0 0.00 0.01 0.01 62 1009.1
20260504030531 41 111 0.0 0.0 0.00 0.01 0.01 62 1009.3
20260504030027 42 122 0.0 0.0 0.00 0.01 0.01 62 1009.0
20260504025524 42 114 0.0 0.0 0.00 0.01 0.01 61 1009.2
20260504025020 42 113 0.0 0.0 0.00 0.01 0.01 61 1009.2
20260504024518 42 117 0.0 0.0 0.00 0.01 0.01 61 1009.0
20260504024015 42 160 1.0 2.0 0.00 0.01 0.01 60 1008.8
20260504023511 41 117 0.0 0.0 0.00 0.01 0.01 63 1009.0
20260504023007 42 113 0.0 0.0 0.00 0.01 0.01 63 1008.9
20260504022503 42 159 1.0 1.0 0.00 0.01 0.01 62 1009.0
20260504022000 41 116 0.0 0.0 0.00 0.01 0.01 62 1008.9
20260504021457 42 112 0.0 0.0 0.00 0.01 0.01 62 1009.0
20260504020954 42 110 0.0 0.0 0.00 0.01 0.01 62 1008.8
20260504020450 42 110 0.0 0.0 0.00 0.01 0.01 61 1008.8
20260504015947 42 111 0.0 0.0 0.00 0.01 0.01 62 1008.8
20260504015444 42 115 0.0 0.0 0.00 0.01 0.01 62 1008.6
20260504014939 42 113 0.0 0.0 0.00 0.01 0.01 62 1008.7
20260504014436 42 154 1.0 1.0 0.00 0.01 0.01 62 1008.7